Wind_Speed
30 28 26 26 26 26 25 24 23 22 23 24 21 18 18 17 17 17 15 15 14 13 12 10 9 8 7 6 5 5 5 6 7 9 11 12 13 15 16 16 17 19 19 19
33 31 29 27 24 24 24 24 25 25 24 25 23 22 20 21 20 19 18 16 15 14 13 12 11 10 9 8 8 8 7 8 8 9 11 12 14 15 15 17 19 20 21 21
34 31 32 31 25 24 24 23 25 26 28 29 29 27 26 24 21 21 21 19 17 15 14 14 13 13 12 11 11 11 10 10 10 11 12 14 15 16 17 18 19 20 21 21
33 33 34 29 28 28 28 28 30 32 33 34 34 31 30 26 25 25 23 21 20 18 16 16 15 15 15 14 13 13 12 13 13 13 14 15 16 17 18 19 20 20 21 22
32 32 32 29 29 31 31 32 34 36 37 37 37 35 33 32 30 28 26 24 23 20 19 18 17 17 16 15 15 15 15 15 15 16 16 17 18 19 20 21 22 23 24 24
32 31 29 26 27 31 32 34 37 37 37 36 37 37 36 33 32 32 29 28 26 24 22 21 20 19 18 18 18 18 18 18 18 19 19 20 20 21 22 23 24 25 26 27
31 31 29 29 30 31 31 34 36 35 35 36 36 36 35 34 33 33 32 31 29 27 25 24 23 22 21 21 21 20 20 20 21 21 21 22 22 23 23 24 25 26 27 28
29 29 29 33 33 35 36 36 36 35 35 35 36 37 36 35 35 35 34 34 32 30 29 28 26 25 24 24 24 23 23 24 24 24 25 25 25 26 26 27 28 29 30 31
28 29 31 32 34 36 36 36 35 35 35 35 35 35 35 34 34 35 35 35 34 33 32 30 29 28 27 27 27 27 27 27 27 28 28 28 28 29 30 31 31 32 32 34
30 30 31 32 33 33 33 34 34 34 34 34 35 35 34 35 35 35 35 35 34 33 33 32 31 31 31 30 30 29 30 30 30 30 30 30 31 31 32 34 35 35 35 36
30 30 31 31 31 32 32 31 31 32 32 33 33 33 33 33 34 34 33 34 33 33 33 33 32 32 32 32 32 32 32 32 32 31 31 31 32 33 34 35 35 35 37 38
27 28 29 29 29 29 29 29 30 30 31 32 32 32 32 32 33 32 32 32 32 32 33 33 33 33 33 34 34 34 34 33 32 32 32 32 33 34 34 34 35 36 38 39
26 26 27 27 27 27 27 27 27 27 28 28 29 30 30 31 31 31 31 31 32 32 32 32 32 33 34 35 35 34 33 32 31 31 31 31 32 32 33 34 35 37 38 40
24 24 24 24 24 25 25 25 25 25 25 26 26 27 28 28 29 29 30 30 31 32 32 31 31 32 33 33 33 32 31 31 31 31 31 30 30 31 32 33 35 37 39 41
22 21 20 21 21 21 21 22 23 23 23 23 23 23 25 26 26 26 27 28 28 29 29 29 30 30 31 31 30 29 30 30 29 28 28 28 30 32 34 35 37 38 40 42
19 19 19 18 18 18 18 19 20 20 20 20 20 20 21 22 22 23 23 24 24 25 26 26 27 27 28 27 25 25 25 25 25 25 27 29 31 33 35 37 38 40 41 43
16 16 16 16 17 16 15 16 15 15 16 17 16 16 17 18 19 19 21 22 23 23 22 22 22 22 21 21 21 22 23 24 26 28 29 31 33 34 36 38 39 41 42 44
13 13 13 13 13 13 14 14 14 13 13 12 13 15 16 17 16 17 18 19 19 19 19 19 19 19 20 20 21 22 23 24 26 28 30 32 34 35 37 39 41 42 43 44
11 11 11 11 12 13 13 12 12 12 11 12 11 11 12 13 13 13 13 13 14 15 15 16 17 19 19 20 21 23 25 26 28 30 32 34 36 37 39 40 41 43 43 43
10 9 9 9 9 9 9 9 10 9 9 9 9 9 9 9 9 9 10 11 12 13 15 17 17 19 20 22 24 25 27 29 31 32 34 35 37 38 39 40 41 41 41 41
9 9 9 9 8 8 8 7 7 7 7 7 7 7 7 8 8 10 11 12 13 14 16 18 19 21 22 24 26 27 29 31 33 34 35 37 37 38 38 39 39 38 38 38
9 9 9 8 7 7 7 6 6 6 6 6 6 7 7 9 10 11 12 13 15 16 18 19 21 23 24 26 28 30 32 33 34 35 35 36 36 36 36 36 36 36 36 35
8 9 8 7 6 6 5 5 5 5 6 7 8 8 9 11 11 12 13 15 17 18 20 22 24 26 27 29 31 32 33 33 34 34 34 34 34 34 34 33 33 33 34 33
8 8 7 7 7 7 6 6 6 7 7 8 9 10 11 12 13 14 16 18 20 22 24 26 27 28 29 30 31 32 32 32 32 32 32 32 32 31 31 31 32 32 32 32
8 7 7 7 7 6 6 6 7 8 8 9 10 12 14 15 17 19 20 22 24 25 26 27 28 29 29 30 30 30 30 30 30 31 31 30 30 29 30 30 31 30 30 29
8 8 7 7 7 7 6 7 8 10 11 12 13 15 17 19 20 22 23 24 25 26 27 27 28 28 28 28 28 28 28 28 29 29 28 28 27 28 28 28 28 28 27 27
7 7 8 8 8 8 8 9 11 12 13 15 17 19 20 21 23 24 25 25 26 26 26 26 27 27 27 26 26 26 27 27 27 26 26 25 25 26 26 26 26 26 25 25
Wind_Direction
226 229 242 242 231 224 225 231 242 250 257 268 274 266 265 270 271 274 277 282 286 289 293 296 296 295 291 284 276 270 261 242 236 231 230 230 234 236 238 241 243 247 249 253
232 230 238 248 245 241 236 233 237 243 254 261 267 266 263 268 268 269 273 274 276 282 284 285 287 287 284 278 270 265 259 252 248 246 242 240 240 243 247 249 251 252 255 256
235 233 236 241 246 247 245 243 245 246 247 252 257 260 259 257 261 267 270 269 270 272 276 280 282 283 279 275 271 266 262 258 256 258 255 253 253 253 255 256 257 259 262 262
239 235 237 237 240 245 247 248 248 248 248 248 250 251 252 254 258 263 264 266 268 271 273 278 278 279 277 272 272 269 266 268 268 267 267 263 261 259 260 264 264 266 269 272
242 242 242 239 240 243 245 247 246 247 247 247 249 251 254 255 257 259 260 264 266 267 270 275 275 274 274 270 270 270 270 269 270 271 271 269 267 264 264 266 267 271 273 274
243 242 242 241 242 246 246 249 248 247 248 248 249 250 250 253 254 257 257 261 264 264 267 270 272 270 272 270 269 271 273 274 274 273 274 273 270 267 267 269 271 273 275 276
244 245 243 239 238 242 245 247 249 250 250 250 250 249 251 252 252 254 255 258 260 261 264 266 268 268 268 268 270 271 275 277 278 277 276 276 274 272 270 271 274 276 277 279
245 244 242 241 240 242 245 248 251 252 252 251 251 250 251 251 251 251 253 256 257 259 260 262 265 266 268 269 271 273 275 277 279 280 280 278 276 275 274 275 277 279 280 281
239 240 241 244 246 248 249 250 252 253 252 251 252 250 249 249 249 250 252 253 255 257 257 259 262 265 268 271 272 272 276 278 277 279 280 280 276 275 275 276 278 279 280 282
240 242 245 247 249 251 252 252 254 254 253 252 250 251 250 249 249 250 250 252 253 254 256 257 260 263 267 270 272 273 274 277 279 279 279 278 278 277 278 278 280 281 283 284
244 247 248 248 249 251 252 253 253 253 252 250 249 249 248 247 247 249 250 251 252 253 255 258 260 262 265 267 270 272 273 274 275 276 277 276 277 279 282 283 283 283 285 286
248 249 249 249 250 251 253 252 252 251 250 249 247 248 247 247 248 247 248 250 251 253 256 259 261 263 264 268 271 272 272 273 274 276 277 277 278 281 282 283 285 286 288 289
252 252 252 252 252 252 252 252 252 250 249 249 247 247 246 247 248 248 249 250 252 255 258 260 262 264 266 268 268 269 270 270 273 275 276 277 279 281 284 286 288 289 292 294
252 252 251 249 249 249 250 250 250 248 247 246 246 245 245 246 247 249 251 251 253 256 259 260 263 265 266 265 265 266 267 270 273 274 275 277 280 283 286 289 292 294 296 297
249 248 249 247 247 246 246 247 246 245 245 245 244 244 243 243 245 248 250 250 252 255 257 259 261 262 263 264 263 265 268 272 274 276 279 282 285 288 290 292 294 295 297 297
245 245 244 243 243 246 247 246 244 242 242 241 241 242 242 244 246 246 248 251 251 254 255 255 258 262 263 263 265 269 273 277 280 285 288 290 291 292 293 295 296 298 299 299
241 240 240 237 236 238 239 238 237 234 234 234 235 237 238 238 240 244 247 250 253 254 255 258 262 264 265 268 274 279 282 285 287 289 290 292 294 295 296 297 299 300 301 302
228 226 231 233 231 228 227 226 226 226 224 227 235 239 236 237 242 245 246 248 249 250 255 261 267 271 274 278 282 285 287 289 291 292 294 296 298 299 300 301 302 302 303 303
215 213 214 216 216 214 210 209 211 215 220 225 229 228 231 234 238 240 240 241 248 254 259 266 271 275 279 285 288 290 291 293 296 298 299 301 302 303 303 303 303 303 304 304
204 203 206 204 200 200 201 202 206 209 215 218 221 226 229 234 239 245 254 263 268 271 276 279 282 286 288 290 292 294 297 299 301 302 303 304 304 304 304 304 304 305 305 305
195 194 193 190 192 199 202 203 203 208 214 217 222 229 238 246 257 265 270 274 278 281 285 287 289 291 292 294 297 299 302 303 304 304 305 305 305 305 305 306 306 306 306 306
187 188 189 191 197 202 203 204 208 216 226 240 250 258 264 269 272 272 276 280 284 287 289 291 294 296 298 301 302 304 305 305 306 306 306 306 307 307 307 308 308 308 308 308
179 183 185 192 200 207 212 218 228 244 256 262 267 273 279 281 281 283 287 290 292 295 296 298 300 302 303 304 305 305 306 306 307 307 307 308 308 309 309 309 309 310 310 310
183 186 191 197 208 221 230 233 242 253 262 268 274 280 283 286 289 293 295 297 299 300 301 302 303 304 305 305 306 306 306 306 307 307 308 309 309 309 310 310 312 313 313 313
203 205 204 205 214 221 230 240 252 260 270 276 280 285 288 291 295 297 298 299 300 301 302 303 304 305 305 306 306 306 306 307 308 310 310 311 311 312 312 313 314 315 315 316
215 218 218 225 235 241 248 260 270 276 280 284 288 291 293 294 296 298 300 300 301 302 303 304 305 305 305 306 306 307 307 308 309 311 312 313 314 315 316 316 317 318 319 319
226 234 245 253 258 265 273 280 286 290 292 294 294 295 297 298 299 300 300 300 301 302 303 305 306 306 308 309 309 310 310 311 312 313 315 316 316 317 319 321 321 322 322 322
Height
5807 5809 5811 5811 5813 5816 5818 5821 5824 5825 5824 5822 5820 5819 5820 5820 5821 5823 5824 5824 5823 5823 5823 5822 5821 5821 5821 5821 5821 5821 5821 5822 5823 5823 5825 5826 5828 5829 5831 5833 5834 5835 5837 5838
5798 5803 5805 5805 5807 5809 5811 5815 5817 5819 5819 5817 5815 5815 5815 5816 5818 5819 5820 5821 5820 5820 5820 5820 5820 5820 5820 5820 5820 5820 5820 5821 5822 5822 5822 5824 5825 5826 5828 5829 5830 5831 5832 5832
5791 5795 5797 5799 5803 5804 5805 5807 5810 5811 5813 5810 5810 5811 5810 5811 5812 5814 5816 5817 5817 5817 5817 5818 5818 5817 5817 5818 5818 5818 5819 5819 5819 5820 5820 5821 5822 5823 5824 5825 5826 5826 5827 5827
5783 5787 5788 5795 5797 5797 5798 5800 5802 5802 5803 5803 5804 5804 5804 5804 5806 5810 5810 5811 5813 5813 5813 5814 5814 5814 5814 5815 5815 5815 5816 5816 5817 5817 5817 5818 5818 5819 5820 5820 5821 5822 5822 5822
5775 5778 5781 5787 5789 5789 5791 5792 5792 5793 5794 5795 5796 5797 5799 5800 5802 5803 5805 5806 5808 5807 5809 5810 5810 5811 5811 5811 5811 5812 5812 5813 5813 5813 5814 5813 5814 5814 5814 5815 5816 5816 5816 5815
5767 5770 5774 5779 5780 5779 5783 5783 5781 5783 5785 5787 5789 5791 5792 5794 5796 5797 5798 5800 5802 5803 5804 5806 5806 5806 5807 5807 5808 5808 5808 5808 5808 5809 5809 5808 5808 5808 5808 5809 5809 5809 5809 5808
5758 5761 5765 5769 5769 5770 5774 5772 5772 5775 5777 5779 5780 5782 5784 5786 5788 5791 5793 5795 5797 5798 5799 5800 5801 5802 5802 5803 5803 5803 5804 5804 5804 5804 5804 5803 5803 5803 5803 5803 5803 5802 5802 5801
5751 5754 5759 5757 5759 5761 5762 5763 5765 5767 5769 5771 5772 5773 5776 5778 5781 5784 5786 5788 5790 5792 5793 5794 5795 5796 5797 5797 5798 5798 5798 5798 5798 5798 5798 5798 5797 5797 5796 5796 5795 5795 5794 5793
5743 5746 5746 5748 5750 5751 5753 5755 5756 5759 5760 5762 5764 5764 5768 5771 5773 5776 5778 5781 5783 5785 5786 5788 5789 5790 5791 5791 5791 5792 5792 5792 5791 5791 5791 5791 5790 5790 5789 5789 5788 5787 5786 5785
5734 5737 5738 5740 5741 5743 5745 5747 5749 5750 5752 5754 5755 5757 5759 5762 5765 5768 5770 5773 5775 5777 5779 5781 5782 5783 5784 5784 5785 5785 5785 5785 5784 5784 5784 5784 5783 5782 5781 5780 5779 5778 5776 5775
5726 5729 5730 5732 5733 5735 5736 5738 5740 5741 5743 5745 5747 5749 5752 5755 5757 5760 5763 5765 5768 5770 5771 5773 5775 5775 5776 5777 5777 5777 5777 5777 5777 5777 5776 5776 5775 5774 5773 5771 5770 5768 5766 5764
5719 5721 5722 5724 5725 5727 5728 5730 5732 5733 5735 5736 5738 5741 5744 5747 5750 5752 5755 5758 5760 5763 5764 5766 5767 5768 5769 5769 5770 5770 5770 5770 5770 5769 5769 5768 5767 5765 5763 5762 5760 5758 5756 5754
5712 5714 5715 5717 5718 5719 5721 5723 5724 5726 5727 5728 5731 5734 5737 5740 5743 5745 5748 5751 5753 5755 5757 5758 5759 5760 5761 5761 5762 5762 5762 5761 5761 5761 5760 5759 5757 5756 5755 5753 5751 5749 5746 5743
5705 5707 5709 5710 5711 5712 5714 5716 5717 5719 5721 5723 5725 5728 5731 5733 5736 5739 5741 5744 5746 5748 5750 5751 5752 5753 5753 5753 5753 5753 5753 5753 5752 5752 5751 5750 5749 5748 5746 5744 5742 5739 5736 5732
5699 5701 5703 5704 5705 5706 5708 5709 5711 5713 5715 5717 5719 5722 5725 5727 5730 5733 5735 5737 5739 5741 5742 5743 5744 5745 5745 5745 5745 5745 5745 5744 5744 5743 5742 5741 5740 5739 5737 5735 5732 5729 5725 5721
5694 5696 5697 5699 5700 5702 5703 5704 5706 5708 5710 5712 5715 5717 5719 5722 5724 5726 5729 5731 5732 5734 5735 5736 5737 5738 5738 5738 5738 5738 5738 5737 5737 5736 5735 5734 5732 5729 5727 5724 5721 5717 5713 5709
5689 5691 5692 5694 5696 5698 5699 5701 5702 5705 5707 5709 5711 5713 5715 5718 5720 5722 5724 5726 5728 5729 5730 5731 5732 5732 5732 5732 5732 5732 5731 5731 5730 5729 5727 5725 5722 5719 5716 5713 5709 5705 5701 5696
5686 5687 5689 5691 5692 5694 5696 5698 5700 5702 5704 5706 5708 5710 5712 5714 5716 5718 5720 5721 5723 5724 5725 5726 5726 5726 5726 5726 5726 5726 5725 5724 5722 5721 5718 5715 5712 5709 5705 5701 5697 5693 5688 5684
5683 5685 5687 5688 5690 5692 5693 5696 5698 5700 5702 5704 5706 5708 5710 5712 5713 5715 5716 5718 5719 5720 5720 5720 5721 5721 5721 5720 5720 5719 5718 5716 5714 5711 5708 5705 5702 5698 5694 5690 5685 5681 5676 5671
5681 5683 5685 5687 5689 5691 5693 5695 5697 5699 5701 5703 5704 5706 5708 5709 5711 5712 5713 5715 5715 5716 5716 5716 5716 5716 5715 5714 5713 5712 5710 5707 5705 5702 5698 5695 5691 5687 5683 5678 5674 5669 5664 5659
5680 5682 5685 5687 5689 5691 5693 5694 5696 5698 5700 5701 5703 5705 5706 5707 5709 5710 5710 5711 5711 5711 5711 5711 5711 5710 5708 5707 5705 5703 5700 5698 5695 5692 5688 5684 5680 5676 5672 5667 5662 5658 5653 5648
5680 5682 5684 5686 5688 5690 5692 5694 5695 5697 5699 5700 5701 5703 5704 5705 5705 5706 5706 5707 5707 5706 5706 5705 5704 5702 5701 5699 5696 5694 5691 5688 5685 5681 5677 5673 5669 5665 5661 5656 5652 5647 5642 5638
5679 5682 5684 5686 5688 5690 5691 5693 5694 5696 5697 5698 5699 5700 5701 5701 5701 5702 5702 5702 5701 5700 5700 5698 5697 5694 5692 5690 5688 5685 5681 5678 5675 5671 5667 5663 5659 5655 5651 5647 5642 5638 5633 5628
5680 5681 5683 5685 5687 5689 5690 5691 5693 5694 5695 5696 5696 5697 5697 5698 5698 5697 5697 5696 5695 5694 5693 5691 5689 5686 5684 5681 5678 5675 5672 5669 5665 5662 5658 5654 5650 5646 5642 5638 5633 5629 5625 5620
5680 5681 5683 5684 5685 5687 5688 5689 5690 5691 5692 5693 5693 5693 5693 5693 5693 5692 5691 5690 5688 5687 5685 5683 5680 5678 5675 5673 5670 5667 5663 5660 5656 5653 5649 5645 5642 5638 5634 5630 5625 5621 5617 5612
5679 5680 5682 5683 5684 5685 5686 5687 5688 5688 5689 5689 5689 5689 5688 5687 5687 5685 5684 5682 5681 5679 5677 5675 5672 5670 5667 5665 5662 5658 5655 5652 5649 5645 5641 5638 5634 5630 5626 5622 5618 5614 5610 5606
5678 5679 5681 5682 5682 5683 5684 5684 5685 5685 5685 5685 5684 5683 5683 5681 5680 5679 5677 5675 5673 5671 5669 5667 5665 5662 5659 5657 5654 5651 5647 5644 5641 5637 5634 5631 5627 5624 5620 5616 5612 5608 5604 5600